Вернуться в каталог

STARLINK-37588

АктивенСвязьVLEO
NORAD 69842·PAYLOAD·🇺🇸 United States

Запущен Jul 5, 2026 с Cape Canaveral Space Force Station

Loading…

Ближайшие Пролёты (ближайшие 24 часа)

TLE

СвежийSource: CelesTrak SupGP

Эпоха: Sep 15, 2026, 03:54 UTC

1 69842C 26154Z   26258.16298611  .00068737  00000+0  20335-2 0  2587
2 69842  53.1586 356.5805 0001066  98.1512 121.4413 15.34316340    17

Отслеживайте STARLINK-37588 в реальном времени с AllMySat

Download on the App Store